EW1967 Weather Reports


Display with metric or nautical units.
time (UTC)temp
F
wind
direction
speed
MPH
gust
MPH
rain 1hr
in
rain 24hr
in
rain mn
in
humidity
%
barometer
mb
20260507220053 57 333 0.0 0.0 0.00 0.01 0.00 81 1011.2
20260507214548 57 333 0.0 1.0 0.00 0.01 0.01 81 1011.1
20260507213048 57 331 0.0 0.0 0.00 0.01 0.01 81 1011.1
20260507211532 57 331 0.0 0.0 0.00 0.01 0.01 80 1010.9
20260507210033 58 331 0.0 0.0 0.00 0.01 0.01 80 1010.9
20260507204531 58 331 0.0 0.0 0.00 0.01 0.01 80 1010.9
20260507203051 58 331 0.0 0.0 0.00 0.01 0.01 79 1011.0
20260507201532 59 331 0.0 0.0 0.00 0.01 0.01 78 1011.1
20260507200030 58 331 0.0 2.0 0.00 0.01 0.01 78 1011.0
20260507194531 58 332 2.0 4.0 0.00 0.01 0.01 79 1011.0
20260507193028 58 324 2.0 6.0 0.00 0.01 0.01 79 1010.7
20260507191532 58 329 1.0 6.0 0.00 0.01 0.01 78 1010.6
20260507190027 59 347 0.0 5.0 0.00 0.01 0.01 77 1010.6
20260507184527 59 323 1.0 3.0 0.00 0.01 0.01 77 1010.4
20260507183026 60 328 1.0 6.0 0.00 0.01 0.01 75 1010.3
20260507181525 60 319 2.0 8.0 0.00 0.01 0.01 75 1010.1
20260507180025 61 40 2.0 5.0 0.00 0.01 0.01 75 1010.1
20260507174535 61 311 3.0 9.0 0.00 0.01 0.01 74 1010.0
20260507173047 62 342 2.0 6.0 0.00 0.01 0.01 73 1009.8
20260507171526 63 315 2.0 10.0 0.00 0.01 0.01 71 1009.4
20260507170025 64 19 6.0 14.0 0.00 0.01 0.01 68 1009.1
20260507164522 67 355 6.0 10.0 0.00 0.01 0.01 61 1009.0
20260507163025 69 219 1.0 5.0 0.00 0.01 0.01 51 1008.9
20260507161523 70 259 1.0 6.0 0.00 0.01 0.01 49 1008.8
20260507160024 70 229 2.0 7.0 0.00 0.01 0.01 49 1008.9
20260507154519 70 251 3.0 10.0 0.00 0.01 0.01 48 1008.9
20260507153019 70 183 4.0 9.0 0.00 0.01 0.01 49 1009.0
20260507151516 69 184 6.0 10.0 0.00 0.01 0.01 50 1008.9
20260507150023 71 171 7.0 10.0 0.00 0.01 0.01 45 1009.0
20260507144514 72 225 2.0 8.0 0.00 0.01 0.01 45 1009.0
20260507143012 71 236 1.0 9.0 0.00 0.01 0.01 45 1009.2
20260507141510 70 231 1.0 7.0 0.00 0.01 0.01 45 1009.4
20260507140008 71 308 4.0 11.0 0.00 0.01 0.01 44 1009.6
20260507134510 71 277 1.0 12.0 0.00 0.01 0.01 47 1009.6
20260507133006 71 288 1.0 9.0 0.00 0.01 0.01 42 1009.7
20260507131503 70 131 3.0 9.0 0.00 0.01 0.01 42 1009.8
20260507130002 70 259 3.0 11.0 0.00 0.01 0.01 46 1010.0
20260507124608 70 269 3.0 12.0 0.00 0.01 0.01 44 1010.3
20260507124501 70 271 6.0 12.0 0.00 0.01 0.01 43 1010.3
20260507123059 71 179 1.0 9.0 0.00 0.01 0.01 46 1010.2
20260507121557 70 285 3.0 10.0 0.00 0.01 0.01 43 1010.1
20260507120055 69 136 6.0 11.0 0.00 0.01 0.01 41 1010.2
20260507114609 69 138 7.0 12.0 0.00 0.01 0.01 44 1010.2
20260507113051 69 181 8.0 12.0 0.00 0.01 0.01 46 1010.3
20260507111549 68 235 4.0 8.0 0.00 0.01 0.01 48 1010.3
20260507110048 69 194 4.0 9.0 0.00 0.01 0.01 52 1010.3
20260507104546 67 13 5.0 9.0 0.00 0.02 0.01 55 1010.3
20260507103049 67 38 1.0 5.0 0.00 0.02 0.01 56 1010.5
20260507101546 67 51 0.0 4.0 0.00 0.02 0.01 60 1010.7
20260507100040 67 82 0.0 6.0 0.00 0.02 0.01 60 1010.7
20260507094552 66 117 1.0 6.0 0.00 0.02 0.01 60 1010.7
20260507093037 66 140 4.0 7.0 0.00 0.02 0.01 64 1010.8
20260507091535 66 102 2.0 7.0 0.00 0.02 0.01 65 1010.9
20260507090031 65 81 3.0 7.0 0.00 0.02 0.01 64 1011.1
20260507084529 64 60 0.0 4.0 0.00 0.02 0.01 65 1011.2
20260507083027 64 44 1.0 4.0 0.00 0.02 0.01 65 1011.3
20260507081525 63 88 1.0 4.0 0.00 0.02 0.01 66 1011.4
20260507080021 63 88 1.0 6.0 0.00 0.02 0.01 70 1011.4
20260507074519 61 134 2.0 5.0 0.00 0.02 0.01 70 1011.5
20260507073016 61 104 2.0 4.0 0.00 0.02 0.01 72 1011.3
20260507071518 61 63 1.0 3.0 0.00 0.02 0.01 70 1011.4
20260507070018 60 56 0.0 3.0 0.00 0.02 0.01 75 1011.5
20260507064512 59 91 0.0 3.0 0.00 0.02 0.01 77 1011.4
20260507063004 58 96 0.0 2.0 0.00 0.02 0.01 80 1011.3
20260507061502 56 98 1.0 4.0 0.00 0.02 0.01 83 1011.4
20260507060101 57 52 2.0 3.0 0.00 0.02 0.01 83 1011.2
20260507054556 55 355 0.0 0.0 0.00 0.02 0.01 85 1011.2
20260507053118 54 355 0.0 1.0 0.00 0.02 0.01 86 1011.4
20260507051554 53 355 0.0 0.0 0.00 0.02 0.01 86 1011.2
20260507050050 53 355 0.0 0.0 0.00 0.02 0.01 86 1011.2
20260507044558 53 355 0.0 0.0 0.00 0.02 0.01 86 1011.1
20260507043048 53 355 0.0 2.0 0.00 0.02 0.01 85 1010.9
20260507041546 53 355 0.0 3.0 0.00 0.02 0.01 84 1010.8
20260507040044 54 123 0.0 2.0 0.00 0.02 0.01 82 1010.7
20260507034543 54 132 1.0 4.0 0.00 0.03 0.01 80 1010.5
20260507033048 55 229 0.0 5.0 0.00 0.03 0.01 79 1010.7
20260507031551 55 238 1.0 5.0 0.00 0.03 0.01 79 1010.8
20260507030042 55 251 1.0 4.0 0.00 0.03 0.01 78 1010.7
20260507024541 55 198 1.0 5.0 0.00 0.08 0.01 78 1010.7
20260507023034 55 285 2.0 7.0 0.00 0.08 0.01 77 1010.7
20260507021536 56 250 1.0 9.0 0.00 0.08 0.01 75 1010.5
20260507020032 56 265 2.0 8.0 0.00 0.08 0.01 75 1010.4
20260507014541 56 268 1.0 7.0 0.00 0.08 0.01 74 1010.3
20260507013037 56 288 1.0 5.0 0.00 0.08 0.01 75 1010.2
20260507011536 55 229 0.0 2.0 0.00 0.08 0.01 77 1010.2
20260507010038 55 242 0.0 2.0 0.00 0.08 0.01 80 1010.2
20260507004528 56 243 0.0 1.0 0.00 0.08 0.01 74 1010.2
20260507003027 56 239 1.0 3.0 0.00 0.08 0.01 73 1010.1
20260507001528 55 237 2.0 7.0 0.00 0.08 0.01 77 1010.2
20260507000024 56 28 0.0 2.0 0.00 0.08 0.01 76 1010.3
20260506234523 56 233 0.0 10.0 0.00 0.08 0.01 74 1010.4
20260506233021 57 157 4.0 8.0 0.00 0.08 0.01 75 1010.6
20260506231520 57 187 2.0 5.0 0.01 0.08 0.01 74 1010.6
20260506230017 56 220 4.0 8.0 0.01 0.08 0.01 77 1010.7
20260506224517 56 145 0.0 5.0 0.01 0.08 0.01 78 1010.8
20260506223018 56 138 1.0 6.0 0.01 0.08 0.01 76 1010.9
20260506221510 57 241 2.0 10.0 0.00 0.07 0.00 74 1010.7